Time,TemperatureF,DewpointF,PressureIn,WindDirection,WindDirectionDegrees,WindSpeedMPH,WindSpeedGustMPH,Humidity,HourlyPrecipIn,Conditions,Clouds,dailyrainin,SoftwareType,DateUTC
2013-04-08 00:02:00,29.0,28.0,-100.00,SSE,150,1.0,2.0,95,-99.99,,,-99.99,,2013-04-08 05:02:00,
2013-04-08 00:12:00,29.0,28.0,-100.00,SSE,150,1.0,2.0,95,-99.99,,,-99.99,,2013-04-08 05:12:00,
2013-04-08 00:32:00,30.0,29.0,-100.00,SE,140,1.0,2.0,97,-99.99,,,-99.99,,2013-04-08 05:32:00,
2013-04-08 00:42:00,30.0,29.0,-100.00,SE,140,1.0,2.0,97,-99.99,,,-99.99,,2013-04-08 05:42:00,
2013-04-08 00:52:00,30.0,29.0,-100.00,SE,140,1.0,2.0,97,-99.99,,,-99.99,,2013-04-08 05:52:00,
2013-04-08 01:02:00,30.0,29.0,-100.00,SE,140,1.0,2.0,97,-99.99,,,-99.99,,2013-04-08 06:02:00,
2013-04-08 01:12:00,30.0,29.0,-100.00,SE,140,1.0,2.0,97,-99.99,,,-99.99,,2013-04-08 06:12:00,
2013-04-08 01:32:00,31.0,30.0,-100.00,SSE,150,1.0,4.0,98,-99.99,,,-99.99,,2013-04-08 06:32:00,
2013-04-08 01:43:00,31.0,30.0,-100.00,SSE,150,1.0,4.0,98,-99.99,,,-99.99,,2013-04-08 06:43:00,
2013-04-08 01:52:00,31.0,30.0,-100.00,SSE,150,1.0,4.0,98,-99.99,,,-99.99,,2013-04-08 06:52:00,
2013-04-08 02:02:00,31.0,30.0,-100.00,SSE,150,1.0,4.0,98,-99.99,,,-99.99,,2013-04-08 07:02:00,
2013-04-08 02:42:00,32.0,32.0,-100.00,East,95,0.0,1.0,98,-99.99,,,-99.99,,2013-04-08 07:42:00,
2013-04-08 02:52:00,32.0,32.0,-100.00,East,95,0.0,1.0,98,-99.99,,,-99.99,,2013-04-08 07:52:00,
2013-04-08 03:02:00,32.0,32.0,-100.00,East,95,0.0,1.0,98,-99.99,,,-99.99,,2013-04-08 08:02:00,
2013-04-08 03:12:00,32.0,32.0,-100.00,East,95,0.0,1.0,98,-99.99,,,-99.99,,2013-04-08 08:12:00,
2013-04-08 03:43:00,33.0,32.0,-100.00,SE,135,2.0,4.0,96,-99.99,,,-99.99,,2013-04-08 08:43:00,
2013-04-08 03:52:00,33.0,32.0,-100.00,SE,135,2.0,4.0,96,-99.99,,,-99.99,,2013-04-08 08:52:00,
2013-04-08 04:02:00,33.0,32.0,-100.00,SE,135,2.0,4.0,96,-99.99,,,-99.99,,2013-04-08 09:02:00,
2013-04-08 04:12:00,33.0,32.0,-100.00,SE,135,2.0,4.0,96,-99.99,,,-99.99,,2013-04-08 09:12:00,
2013-04-08 04:43:00,33.0,32.0,-100.00,South,175,0.0,1.0,97,-99.99,,,-99.99,,2013-04-08 09:43:00,
2013-04-08 04:53:00,33.0,32.0,-100.00,South,175,0.0,1.0,97,-99.99,,,-99.99,,2013-04-08 09:53:00,
2013-04-08 05:03:00,33.0,32.0,-100.00,South,175,0.0,1.0,97,-99.99,,,-99.99,,2013-04-08 10:03:00,
2013-04-08 05:13:00,33.0,32.0,-100.00,South,175,0.0,1.0,97,-99.99,,,-99.99,,2013-04-08 10:13:00,
2013-04-08 05:33:00,33.0,33.0,-100.00,East,85,1.0,4.0,98,-99.99,,,-99.99,,2013-04-08 10:33:00,
2013-04-08 05:43:00,33.0,33.0,-100.00,East,85,1.0,4.0,98,-99.99,,,-99.99,,2013-04-08 10:43:00,
2013-04-08 05:53:00,33.0,33.0,-100.00,East,85,1.0,4.0,98,-99.99,,,-99.99,,2013-04-08 10:53:00,
2013-04-08 06:02:00,33.0,33.0,-100.00,East,85,1.0,4.0,98,-99.99,,,-99.99,,2013-04-08 11:02:00,
2013-04-08 06:12:00,33.0,33.0,-100.00,East,85,1.0,4.0,98,-99.99,,,-99.99,,2013-04-08 11:12:00,
2013-04-08 06:33:00,33.0,33.0,-100.00,SSE,150,1.0,4.0,99,-99.99,,,-99.99,,2013-04-08 11:33:00,
2013-04-08 06:43:00,33.0,33.0,-100.00,SSE,150,1.0,4.0,99,-99.99,,,-99.99,,2013-04-08 11:43:00,
2013-04-08 06:52:00,33.0,33.0,-100.00,SSE,150,1.0,4.0,99,-99.99,,,-99.99,,2013-04-08 11:52:00,
2013-04-08 07:03:00,33.0,33.0,-100.00,SSE,150,1.0,4.0,99,-99.99,,,-99.99,,2013-04-08 12:03:00,
2013-04-08 07:12:00,33.0,33.0,-100.00,SSE,150,1.0,4.0,99,-99.99,,,-99.99,,2013-04-08 12:12:00,
2013-04-08 07:33:00,33.0,33.0,-100.00,SE,130,6.0,10.0,99,-99.99,,,-99.99,,2013-04-08 12:33:00,
2013-04-08 07:43:00,33.0,33.0,-100.00,SE,130,6.0,10.0,99,-99.99,,,-99.99,,2013-04-08 12:43:00,
2013-04-08 07:53:00,33.0,33.0,-100.00,SE,130,6.0,10.0,99,-99.99,,,-99.99,,2013-04-08 12:53:00,
2013-04-08 08:03:00,33.0,33.0,-100.00,SE,130,6.0,10.0,99,-99.99,,,-99.99,,2013-04-08 13:03:00,
2013-04-08 08:12:00,33.0,33.0,-100.00,SE,130,6.0,10.0,99,-99.99,,,-99.99,,2013-04-08 13:12:00,
2013-04-08 08:33:00,33.0,33.0,-100.00,ESE,110,4.0,10.0,99,-99.99,,,-99.99,,2013-04-08 13:33:00,
2013-04-08 08:43:00,33.0,33.0,-100.00,ESE,110,4.0,10.0,99,-99.99,,,-99.99,,2013-04-08 13:43:00,
2013-04-08 08:52:00,33.0,33.0,-100.00,ESE,110,4.0,10.0,99,-99.99,,,-99.99,,2013-04-08 13:52:00,
2013-04-08 09:02:00,33.0,33.0,-100.00,ESE,110,4.0,10.0,99,-99.99,,,-99.99,,2013-04-08 14:02:00,
2013-04-08 09:12:00,33.0,33.0,-100.00,ESE,110,4.0,10.0,99,-99.99,,,-99.99,,2013-04-08 14:12:00,
2013-04-08 09:33:00,33.0,33.0,-100.00,SE,125,6.0,9.0,99,-99.99,,,-99.99,,2013-04-08 14:33:00,
2013-04-08 09:43:00,33.0,33.0,-100.00,SE,125,6.0,9.0,99,-99.99,,,-99.99,,2013-04-08 14:43:00,
2013-04-08 09:52:00,33.0,33.0,-100.00,SE,125,6.0,9.0,99,-99.99,,,-99.99,,2013-04-08 14:52:00,
2013-04-08 10:02:00,33.0,33.0,-100.00,SE,125,6.0,9.0,99,-99.99,,,-99.99,,2013-04-08 15:02:00,
2013-04-08 10:35:00,34.0,34.0,-100.00,SE,145,3.0,10.0,99,-99.99,,,-99.99,,2013-04-08 15:35:00,
2013-04-08 10:43:00,34.0,34.0,-100.00,SE,145,3.0,10.0,99,-99.99,,,-99.99,,2013-04-08 15:43:00,
2013-04-08 10:53:00,34.0,34.0,-100.00,SE,145,3.0,10.0,99,-99.99,,,-99.99,,2013-04-08 15:53:00,
2013-04-08 11:03:00,34.0,34.0,-100.00,SE,145,3.0,10.0,99,-99.99,,,-99.99,,2013-04-08 16:03:00,
2013-04-08 11:13:00,34.0,34.0,-100.00,SE,145,3.0,10.0,99,-99.99,,,-99.99,,2013-04-08 16:13:00,
2013-04-08 11:42:00,35.0,34.0,-100.00,SE,140,6.0,9.0,99,-99.99,,,-99.99,,2013-04-08 16:42:00,
2013-04-08 11:53:00,35.0,34.0,-100.00,SE,140,6.0,9.0,99,-99.99,,,-99.99,,2013-04-08 16:53:00,
2013-04-08 12:03:00,35.0,34.0,-100.00,SE,140,6.0,9.0,99,-99.99,,,-99.99,,2013-04-08 17:03:00,
2013-04-08 12:12:00,35.0,34.0,-100.00,SE,140,6.0,9.0,99,-99.99,,,-99.99,,2013-04-08 17:12:00,
2013-04-08 12:32:00,36.0,36.0,-100.00,SE,135,1.0,11.0,99,-99.99,,,-99.99,,2013-04-08 17:32:00,
2013-04-08 12:44:00,36.0,36.0,-100.00,SE,135,1.0,11.0,99,-99.99,,,-99.99,,2013-04-08 17:44:00,
2013-04-08 12:52:00,36.0,36.0,-100.00,SE,135,1.0,11.0,99,-99.99,,,-99.99,,2013-04-08 17:52:00,
2013-04-08 13:02:00,36.0,36.0,-100.00,SE,135,1.0,11.0,99,-99.99,,,-99.99,,2013-04-08 18:02:00,
2013-04-08 13:12:00,36.0,36.0,-100.00,NW,305,0.0,4.0,99,-99.99,,,-99.99,,2013-04-08 18:12:00,
2013-04-08 13:32:00,36.0,36.0,-100.00,NW,305,0.0,4.0,99,-99.99,,,-99.99,,2013-04-08 18:32:00,
2013-04-08 13:42:00,36.0,36.0,-100.00,NW,305,0.0,4.0,99,-99.99,,,-99.99,,2013-04-08 18:42:00,
2013-04-08 13:52:00,36.0,36.0,-100.00,NW,305,0.0,4.0,99,-99.99,,,-99.99,,2013-04-08 18:52:00,
2013-04-08 14:02:00,36.0,36.0,-100.00,NW,305,0.0,4.0,99,-99.99,,,-99.99,,2013-04-08 19:02:00,
2013-04-08 14:33:00,36.0,36.0,-100.00,North,10,1.0,2.0,99,-99.99,,,-99.99,,2013-04-08 19:33:00,
2013-04-08 14:43:00,36.0,36.0,-100.00,North,10,1.0,2.0,99,-99.99,,,-99.99,,2013-04-08 19:43:00,
2013-04-08 14:52:00,36.0,36.0,-100.00,North,10,1.0,2.0,99,-99.99,,,-99.99,,2013-04-08 19:52:00,
2013-04-08 15:02:00,36.0,36.0,-100.00,North,10,1.0,2.0,99,-99.99,,,-99.99,,2013-04-08 20:02:00,
2013-04-08 15:12:00,36.0,36.0,-100.00,North,10,1.0,2.0,99,-99.99,,,-99.99,,2013-04-08 20:12:00,
2013-04-08 15:33:00,38.0,37.0,-100.00,ESE,105,1.0,4.0,99,-99.99,,,-99.99,,2013-04-08 20:33:00,
2013-04-08 15:43:00,38.0,37.0,-100.00,ESE,105,1.0,4.0,99,-99.99,,,-99.99,,2013-04-08 20:43:00,
2013-04-08 15:52:00,38.0,37.0,-100.00,ESE,105,1.0,4.0,99,-99.99,,,-99.99,,2013-04-08 20:52:00,
2013-04-08 16:02:00,38.0,37.0,-100.00,ESE,105,1.0,4.0,99,-99.99,,,-99.99,,2013-04-08 21:02:00,
2013-04-08 16:11:00,39.0,39.0,-100.00,ESE,115,0.0,2.0,99,-99.99,,,-99.99,,2013-04-08 21:11:00,
2013-04-08 16:33:00,39.0,39.0,-100.00,ESE,115,0.0,2.0,99,-99.99,,,-99.99,,2013-04-08 21:33:00,
2013-04-08 16:43:00,39.0,39.0,-100.00,ESE,115,0.0,2.0,99,-99.99,,,-99.99,,2013-04-08 21:43:00,
2013-04-08 16:53:00,39.0,39.0,-100.00,ESE,115,0.0,2.0,99,-99.99,,,-99.99,,2013-04-08 21:53:00,
2013-04-08 17:03:00,39.0,39.0,-100.00,ESE,115,0.0,2.0,99,-99.99,,,-99.99,,2013-04-08 22:03:00,
2013-04-08 17:12:00,38.0,37.0,-100.00,NE,40,2.0,4.0,98,-99.99,,,-99.99,,2013-04-08 22:12:00,
2013-04-08 17:43:00,38.0,37.0,-100.00,NE,40,2.0,4.0,98,-99.99,,,-99.99,,2013-04-08 22:43:00,
2013-04-08 17:53:00,38.0,37.0,-100.00,NE,40,2.0,4.0,98,-99.99,,,-99.99,,2013-04-08 22:53:00,
2013-04-08 18:02:00,38.0,37.0,-100.00,NE,40,2.0,4.0,98,-99.99,,,-99.99,,2013-04-08 23:02:00,
2013-04-08 18:32:00,37.0,37.0,-100.00,NNE,20,3.0,7.0,98,-99.99,,,-99.99,,2013-04-08 23:32:00,
2013-04-08 18:43:00,37.0,37.0,-100.00,NNE,20,3.0,7.0,98,-99.99,,,-99.99,,2013-04-08 23:43:00,
2013-04-08 18:52:00,37.0,37.0,-100.00,NNE,20,3.0,7.0,98,-99.99,,,-99.99,,2013-04-08 23:52:00,
2013-04-08 19:02:00,37.0,37.0,-100.00,NNE,20,3.0,7.0,98,-99.99,,,-99.99,,2013-04-09 00:02:00,
2013-04-08 19:12:00,37.0,37.0,-100.00,NNE,20,3.0,7.0,98,-99.99,,,-99.99,,2013-04-09 00:12:00,
2013-04-08 19:32:00,37.0,36.0,-100.00,North,5,0.0,2.0,98,-99.99,,,-99.99,,2013-04-09 00:32:00,
2013-04-08 19:42:00,37.0,36.0,-100.00,North,5,0.0,2.0,98,-99.99,,,-99.99,,2013-04-09 00:42:00,
2013-04-08 19:52:00,37.0,36.0,-100.00,North,5,0.0,2.0,98,-99.99,,,-99.99,,2013-04-09 00:52:00,
2013-04-08 20:02:00,37.0,36.0,-100.00,North,5,0.0,2.0,98,-99.99,,,-99.99,,2013-04-09 01:02:00,
2013-04-08 20:12:00,36.0,36.0,-100.00,WNW,285,1.0,2.0,99,-99.99,,,-99.99,,2013-04-09 01:12:00,
2013-04-08 20:34:00,36.0,36.0,-100.00,WNW,285,1.0,2.0,99,-99.99,,,-99.99,,2013-04-09 01:34:00,
2013-04-08 20:42:00,36.0,36.0,-100.00,WNW,285,1.0,2.0,99,-99.99,,,-99.99,,2013-04-09 01:42:00,
2013-04-08 20:52:00,36.0,36.0,-100.00,WNW,285,1.0,2.0,99,-99.99,,,-99.99,,2013-04-09 01:52:00,
2013-04-08 21:02:00,36.0,36.0,-100.00,WNW,285,1.0,2.0,99,-99.99,,,-99.99,,2013-04-09 02:02:00,
2013-04-08 21:12:00,35.0,35.0,-100.00,WNW,285,0.0,1.0,99,-99.99,,,-99.99,,2013-04-09 02:12:00,
2013-04-08 21:33:00,35.0,35.0,-100.00,WNW,285,0.0,1.0,99,-99.99,,,-99.99,,2013-04-09 02:33:00,
2013-04-08 21:44:00,35.0,35.0,-100.00,WNW,285,0.0,1.0,99,-99.99,,,-99.99,,2013-04-09 02:44:00,
2013-04-08 21:52:00,35.0,35.0,-100.00,WNW,285,0.0,1.0,99,-99.99,,,-99.99,,2013-04-09 02:52:00,
2013-04-08 22:02:00,35.0,35.0,-100.00,WNW,285,0.0,1.0,99,-99.99,,,-99.99,,2013-04-09 03:02:00,
2013-04-08 23:33:00,35.0,35.0,-100.00,ENE,60,1.0,1.0,99,-99.99,,,-99.99,,2013-04-09 04:33:00,
2013-04-08 23:43:00,35.0,35.0,-100.00,ENE,60,1.0,1.0,99,-99.99,,,-99.99,,2013-04-09 04:43:00,
2013-04-08 23:53:00,35.0,35.0,-100.00,ENE,60,1.0,1.0,99,-99.99,,,-99.99,,2013-04-09 04:53:00,